When you browse on this site, cookies collect data to enhance your experience and personalize the content and advertising you see.
Visit our Privacy Policy to learn more. By continuing to use the site, you agree to this use of cookies and data.
  • In Sweden
  • List of Countries
  • For 7 days
  • Water Temperature
  • Weather Map
  • Weather Widgets
  • user-avatar
    Login

    Hourly Weather Nadvornaya

    Today, 6 June, Saturday

    Time Temperature Precipitation Wind Pressure Humidity
    00:00 +19°C° 0 mm 2 mps 716 mmHg 79%
    01:00 +17°C° 0 mm 6 mps 716 mmHg 86%
    02:00 +16°C° 0 mm 2 mps 717 mmHg 89%
    03:00 +17°C° 0 mm 2 mps 716 mmHg 88%
    04:00 +16°C° 0 mm 2 mps 717 mmHg 87%
    05:00 +18°C° 0 mm 1 mps 717 mmHg 85%
    06:00 +17°C° 0 mm 2 mps 718 mmHg 88%
    07:00 +17°C° 0 mm 2 mps 718 mmHg 90%
    08:00 +18°C° 0 mm 2 mps 719 mmHg 90%
    09:00 +19°C° 0 mm 3 mps 719 mmHg 86%
    10:00 +21°C° 0 mm 3 mps 720 mmHg 82%
    11:00 +21°C° 0 mm 3 mps 720 mmHg 80%
    12:00 +23°C° 0 mm 1 mps 720 mmHg 78%
    13:00 +24°C° 0 mm 1 mps 720 mmHg 77%
    14:00 +25°C° 0 mm 2 mps 720 mmHg 76%
    15:00 +25°C° 0 mm 3 mps 720 mmHg 74%
    16:00 +25°C° 0.3 mm 2 mps 720 mmHg 77%
    17:00 +25°C° 0 mm 2 mps 720 mmHg 72%
    18:00 +21°C° 0.1 mm 6 mps 720 mmHg 96%
    19:00 +20°C° 0.5 mm 5 mps 719 mmHg 92%
    20:00 +19°C° 0 mm 4 mps 719 mmHg 97%
    21:00 +19°C° 0 mm 4 mps 719 mmHg 99%
    22:00 +18°C° 0 mm 4 mps 719 mmHg 99%
    23:00 +18°C° 0 mm 3 mps 719 mmHg 98%

    Tomorrow, 7 June, Sunday

    Time Temperature Precipitation Wind Pressure Humidity
    00:00 +18°C° 0 mm 3 mps 719 mmHg 98%
    01:00 +18°C° 0 mm 2 mps 719 mmHg 100%
    02:00 +18°C° 0 mm 2 mps 718 mmHg 99%
    03:00 +18°C° 0 mm 3 mps 718 mmHg 97%
    04:00 +18°C° 0 mm 3 mps 718 mmHg 96%
    05:00 +17°C° 0 mm 2 mps 718 mmHg 95%
    06:00 +18°C° 0 mm 3 mps 718 mmHg 97%
    07:00 +19°C° 0 mm 2 mps 719 mmHg 94%
    08:00 +21°C° 0 mm 2 mps 719 mmHg 90%
    09:00 +24°C° 0 mm 2 mps 719 mmHg 86%
    10:00 +25°C° 0 mm 3 mps 720 mmHg 80%
    11:00 +26°C° 0 mm 3 mps 720 mmHg 76%
    12:00 +26°C° 0 mm 4 mps 720 mmHg 84%
    13:00 +27°C° 0 mm 5 mps 719 mmHg 85%
    14:00 +28°C° 0 mm 4 mps 720 mmHg 68%
    15:00 +28°C° 0 mm 4 mps 719 mmHg 70%
    16:00 +27°C° 0 mm 5 mps 719 mmHg 79%
    17:00 +26°C° 0 mm 4 mps 719 mmHg 77%
    18:00 +24°C° 0 mm 3 mps 719 mmHg 87%
    19:00 +23°C° 0 mm 4 mps 719 mmHg 91%
    20:00 +22°C° 0 mm 3 mps 719 mmHg 92%
    21:00 +21°C° 0 mm 4 mps 719 mmHg 96%
    22:00 +20°C° 0 mm 4 mps 719 mmHg 97%
    23:00 +19°C° 0 mm 4 mps 719 mmHg 98%

    Day after tomorrow, 8 June, Monday

    Time Temperature Precipitation Wind Pressure Humidity
    00:00 +19°C° 0 mm 3 mps 719 mmHg 98%
    01:00 +18°C° 0 mm 2 mps 719 mmHg 97%
    02:00 +17°C° 0 mm 2 mps 719 mmHg 97%
    03:00 +17°C° 0 mm 2 mps 718 mmHg 96%
    04:00 +17°C° 0 mm 3 mps 718 mmHg 95%
    05:00 +16°C° 0 mm 3 mps 718 mmHg 92%
    06:00 +17°C° 0 mm 2 mps 718 mmHg 92%
    07:00 +18°C° 0 mm 3 mps 719 mmHg 92%
    08:00 +19°C° 0 mm 3 mps 719 mmHg 90%
    09:00 +20°C° 0 mm 5 mps 719 mmHg 91%
    10:00 +21°C° 0 mm 5 mps 719 mmHg 94%
    11:00 +22°C° 0 mm 5 mps 719 mmHg 96%
    12:00 +22°C° 0 mm 6 mps 719 mmHg 96%
    13:00 +22°C° 0 mm 6 mps 719 mmHg 96%
    14:00 +22°C° 0 mm 6 mps 718 mmHg 97%
    15:00 +22°C° 0 mm 5 mps 718 mmHg 96%
    16:00 +22°C° 0 mm 5 mps 718 mmHg 92%
    17:00 +22°C° 0 mm 5 mps 718 mmHg 91%
    18:00 +22°C° 0 mm 5 mps 717 mmHg 93%
    19:00 +21°C° 0 mm 5 mps 717 mmHg 94%
    20:00 +21°C° 0 mm 4 mps 718 mmHg 96%
    21:00 +20°C° 0 mm 4 mps 718 mmHg 99%
    22:00 +20°C° 0 mm 4 mps 718 mmHg 100%
    23:00 +19°C° 0 mm 4 mps 718 mmHg 100%

    9 June, Tuesday

    Time Temperature Precipitation Wind Pressure Humidity
    00:00 +18°C° 0 mm 3 mps 718 mmHg 100%
    01:00 +18°C° 0 mm 2 mps 718 mmHg 100%
    02:00 +18°C° 0 mm 2 mps 718 mmHg 100%
    03:00 +17°C° 0 mm 2 mps 718 mmHg 100%
    04:00 +18°C° 0 mm 1 mps 718 mmHg 100%
    05:00 +18°C° 0 mm 1 mps 718 mmHg 100%
    06:00 +16°C° 0 mm 0 mps 718 mmHg 100%
    07:00 +17°C° 0 mm 0 mps 719 mmHg 100%
    08:00 +20°C° 0 mm 1 mps 719 mmHg 100%
    09:00 +20°C° 0 mm 2 mps 719 mmHg 99%
    10:00 +21°C° 0 mm 2 mps 720 mmHg 98%
    11:00 +22°C° 0 mm 3 mps 719 mmHg 95%
    12:00 +23°C° 0 mm 2 mps 719 mmHg 92%
    13:00 +21°C° 6.5 mm 4 mps 719 mmHg 97%
    14:00 +19°C° 14.1 mm 4 mps 720 mmHg 95%
    15:00 +21°C° 0.5 mm 1 mps 719 mmHg 90%
    16:00 +22°C° 0 mm 3 mps 719 mmHg 85%
    17:00 +23°C° 0 mm 2 mps 719 mmHg 87%
    18:00 +22°C° 0 mm 1 mps 719 mmHg 86%
    19:00 +22°C° 0 mm 1 mps 719 mmHg 91%
    20:00 +22°C° 0 mm 1 mps 719 mmHg 95%
    21:00 +21°C° 0 mm 1 mps 719 mmHg 89%
    22:00 +21°C° 0 mm 1 mps 719 mmHg 88%
    23:00 +20°C° 0 mm 1 mps 720 mmHg 90%

    10 June, Wednesday

    Time Temperature Precipitation Wind Pressure Humidity
    00:00 +18°C° 0 mm 0 mps 720 mmHg 92%
    01:00 +18°C° 0 mm 0 mps 719 mmHg 94%
    02:00 +17°C° 0 mm 0 mps 719 mmHg 96%
    03:00 +17°C° 0 mm 0 mps 719 mmHg 98%
    04:00 +19°C° 0 mm 1 mps 719 mmHg 99%
    05:00 +18°C° 0 mm 1 mps 719 mmHg 100%
    06:00 +18°C° 0 mm 1 mps 719 mmHg 100%
    07:00 +17°C° 0 mm 0 mps 720 mmHg 100%
    08:00 +17°C° 0 mm 0 mps 720 mmHg 100%
    09:00 +17°C° 0 mm 0 mps 720 mmHg 100%
    10:00 +20°C° 0 mm 1 mps 720 mmHg 99%
    11:00 +21°C° 0 mm 1 mps 720 mmHg 98%
    12:00 +20°C° 0 mm 3 mps 720 mmHg 98%
    13:00 +23°C° 0 mm 2 mps 720 mmHg 92%
    14:00 +24°C° 0 mm 2 mps 720 mmHg 90%
    15:00 +24°C° 0 mm 2 mps 719 mmHg 88%
    16:00 +22°C° 0 mm 4 mps 719 mmHg 90%
    17:00 +22°C° 0 mm 3 mps 719 mmHg 90%
    18:00 +23°C° 0 mm 2 mps 719 mmHg 92%
    19:00 +21°C° 0 mm 2 mps 719 mmHg 94%
    20:00 +22°C° 0 mm 1 mps 719 mmHg 95%
    21:00 +19°C° 0 mm 0 mps 719 mmHg 95%
    22:00 +19°C° 0 mm 0 mps 719 mmHg 98%
    23:00 +19°C° 0 mm 0 mps 719 mmHg 100%

    11 June, Thursday

    Time Temperature Precipitation Wind Pressure Humidity
    00:00 +20°C° 2.3 mm 1 mps 719 mmHg 100%
    01:00 +18°C° 13 mm 2 mps 719 mmHg 100%
    02:00 +19°C° 8.2 mm 1 mps 718 mmHg 98%
    03:00 +17°C° 0 mm 0 mps 718 mmHg 96%
    04:00 +17°C° 0 mm 0 mps 718 mmHg 95%
    05:00 +17°C° 0 mm 0 mps 718 mmHg 96%
    06:00 +17°C° 0 mm 0 mps 718 mmHg 97%
    07:00 +17°C° 0 mm 0 mps 718 mmHg 100%
    08:00 +17°C° 0 mm 0 mps 719 mmHg 100%
    09:00 +17°C° 0 mm 0 mps 719 mmHg 100%
    10:00 +20°C° 0 mm 1 mps 719 mmHg 100%
    11:00 +21°C° 0 mm 3 mps 719 mmHg 99%
    12:00 +22°C° 0 mm 3 mps 719 mmHg 98%
    13:00 +22°C° 0 mm 4 mps 718 mmHg 95%
    14:00 +22°C° 0.3 mm 3 mps 718 mmHg 97%
    15:00 +21°C° 4.2 mm 4 mps 718 mmHg 91%
    16:00 +21°C° 0.1 mm 2 mps 718 mmHg 88%
    17:00 +23°C° 0 mm 1 mps 718 mmHg 86%
    18:00 +21°C° 0 mm 6 mps 718 mmHg 88%
    19:00 +20°C° 0 mm 3 mps 717 mmHg 92%
    20:00 +20°C° 0 mm 2 mps 718 mmHg 96%
    21:00 +19°C° 0 mm 2 mps 718 mmHg 98%
    22:00 +19°C° 0 mm 2 mps 718 mmHg 100%
    23:00 +20°C° 0 mm 1 mps 718 mmHg 100%
    Show more